Regional Weather Roundup
Issued by NWS

Home | Current Version | Previous Version | Text Only | Print | Product List | Glossary On
Versions: 1 2 3 4 5 6 7 8 9 10 11 12 13 14 15 16 17 18 19 20 21 22 23 24 25 26 27 28 29 30 31 32 33 34 35 36 37 38 39 40 41 42 43 44 45 46 47 48 49 50
000
ASUS44 KOUN 292010
RWROK

WEATHER ROUNDUP FOR OKLAHOMA
NATIONAL WEATHER SERVICE NORMAN OK
300 PM CDT THU SEP 29 2016

NOTE: "FAIR" INDICATES FEW OR NO CLOUDS BELOW 12,000 FEET WITH NO
      SIGNIFICANT WEATHER AND/OR OBSTRUCTIONS TO VISIBILITY.

OKZ001>007-009>012-014-015-017-292100-
NORTHWEST OKLAHOMA AND THE PANHANDLE

CITY           SKY/WX    TMP DP  RH WIND       PRES   REMARKS
GAGE           SUNNY     74  40  29 VRB6      30.35F
GUYMON         MOSUNNY   75  43  31 S12       30.35F
ENID/WOODRING  MOSUNNY   72  50  46 N14       30.33F
$$

OKZ016-021>023-033>039-044-045-292100-
SOUTHWEST OKLAHOMA

CITY           SKY/WX    TMP DP  RH WIND       PRES   REMARKS
LAWTON/REGL    SUNNY     73  49  42 NE9       30.32F
LAWTON/FT SILL SUNNY     73  52  48 N8        30.30F
FREDERICK      SUNNY     75  47  36 N7        30.29F
CLINTON        SUNNY     71  46  40 N7        30.36F
HOBART         SUNNY     72  48  42 VRB6      30.34F
ALTUS AFB      CLOUDY    72  46  40 NE8       30.33F
$$

OKZ018>020-024>031-292100-
CENTRAL OKLAHOMA

CITY           SKY/WX    TMP DP  RH WIND       PRES   REMARKS
OKLAHOMA CITY  MOSUNNY   72  49  44 N13G18    30.31F
OKC/WILEY POST SUNNY     71  48  43 E10G21    30.32F
OKC/TINKER AFB SUNNY     72  47  40 N12       30.30F
STILLWATER     SUNNY     74  48  39 N14       30.31F
GUTHRIE        SUNNY     73  50  44 NE7       30.32F
$$

OKZ008-013-054>072-292100-
NORTHEAST OKLAHOMA

CITY           SKY/WX    TMP DP  RH WIND       PRES   REMARKS
TULSA          MOSUNNY   75  48  38 N14       30.29F
TULSA/JONES    SUNNY     74  47  38 N10       30.29F
PONCA CITY     SUNNY     72  48  42 N8G17     30.32F
BARTLESVILLE   SUNNY     72  48  42 NE13G20   30.31F
MUSKOGEE       SUNNY     75  46  35 N13G23    30.28F
$$

OKZ032-040>043-046>053-073>077-292100-
SOUTH CENTRAL/SOUTHEAST OKLAHOMA

CITY           SKY/WX    TMP DP  RH WIND       PRES   REMARKS
ARDMORE/DWNTWN SUNNY     72  45  37 NE8       30.27F
MCALESTER      MOSUNNY   74  46  36 N13       30.27F
$$




USA.gov is the U.S. government's official web portal to all federal, state and local government web resources and services.